Location: Shepherdstown, WV
(39.4326°N, 77.8042°W)
Time: 10:12:06
(UTC-04:00)

Vanguard 2 Rocket - Pass Details

Date: 04 August 2021
Orbit: 556 x 3324 km, 32.9° (Epoch: 20 September)

Event Time Altitude Azimuth Distance (km) Brightness Sun altitude
Exits shadow 05:12:07 - 197° (SSW) 3,583 9.5 -11.3°
Reaches altitude 10° 05:15:58 10° 172° (S) 2,641 9.0 -10.7°
Maximum altitude 05:17:12 11° 160° (SSE) 2,470 9.0 -10.5°
Drops below altitude 10° 05:18:21 10° 147° (SSE) 2,400 9.1 -10.3°
Sets 05:22:40 0° 107° (ESE) 2,957 10.2 -9.6°
